User: anonymous   Login
Location: ????? ??????
(37.8317°N, 23.8750°E)
Time: 16:07:40
(UTC+00:00)
Language:

Aureole 3 - Orbit

View from above orbital plane
View from above orbital plane
View from above satellite
View from above satellite

Ground track
Ground track

The orbit data is extracted from the following two-line orbital elements,

1 12848U 81094A   21107.85783704  .00001084  00000-0  64317-4 0  9996
2 12848  82.4815 153.6341 0588747 259.2279  94.2137 14.25801113988963
Epoch (UTC): 17 April 2021 20:35:17
Eccentricity: 0.0588747
inclination: 82.4815°
perigee height: 383 km
apogee height: 1229 km
right ascension of ascending node: 153.6341°
argument of perigee: 259.2279°
revolutions per day: 14.25801113
mean anomaly at epoch: 94.2137°
orbit number at epoch: 98896

The dashed part of the orbit path shows where the satellite is in the earth's shadow,  

DLR